Regional Weather Roundup
Issued by NWS Jackson, KY

Home | Current Version | Previous Version | Graphics & Text | Print | Product List | Glossary On
Versions: 1 2 3 4 5 6 7 8 9 10 11 12 13 14 15 16 17 18 19 20 21 22 23 24 25 26 27
000
ASUS43 KJKL 201210
RWRJKL

EAST KENTUCKY HOURLY WEATHER ROUNDUP
NATIONAL WEATHER SERVICE JACKSON KY
800 AM EDT SUN AUG 20 2017

NOTE: "FAIR" INDICATES FEW OR NO CLOUDS BELOW 12,000 FEET WITH
NO SIGNIFICANT WEATHER AND/OR OBSTRUCTIONS TO VISIBILITY.

* THESE REPORTS ARE NOT UNDER NWS QUALITY CONTROL AND MAY NOT
  REPORT WEATHER SUCH AS PRECIPITATION AND FOG.

KYZ079-080-083-085-087-088-110-112-115-119-120-201300
...EASTERN KENTUCKY...

CITY           SKY/WX    TMP DP  RH WIND       PRES   REMARKS
JACKSON        SUNNY     69  66  90 CALM      30.12R
6HR MIN TEMP:  67; 6HR MAX TEMP:  71;

LONDON         SUNNY     67  65  93 CALM      30.11R FOG
6HR MIN TEMP:  64; 6HR MAX TEMP:  69;

SOMERSET*      SUNNY     64  64 100 CALM      30.11S
MONTICELLO*    MOSUNNY   67  66  97 W6        30.12R
6HR MIN TEMP:  63; 6HR MAX TEMP:  67; 6HR PCP:  0.01;

WILLIAMSBURG*  CLOUDY    66  66 100 CALM      30.11S VSB<1/4
MIDDLESBORO*   CLOUDY    66  66 100 CALM      30.14R FOG
6HR MIN TEMP:  65; 6HR MAX TEMP:  67;

HARLAN APT*    CLOUDY    64  63  94 CALM      30.15R VSB 1/4
PIKE CO APT*     N/A     66  66 100 S3        30.13R
BIG SANDY APT* SUNNY     69  69  98 CALM      30.12S
6HR MIN TEMP:  67; 6HR MAX TEMP:  72;

MOREHEAD APT*  SUNNY     68  66  94 SE7       30.11R
$$

KYZ035-036-041-042-044-050-067-078-099-201300
...CENTRAL KENTUCKY...

CITY           SKY/WX    TMP DP  RH WIND       PRES   REMARKS
MT STERLING*   SUNNY     68  66  94 CALM      30.11R
FLEMING/MASON* SUNNY     69  67  94 S5        30.10S
DANVILLE*      SUNNY     66  64  94 SW3       30.11R
LEXINGTON      SUNNY     70  66  87 SE5       30.09R
6HR MIN TEMP:  68; 6HR MAX TEMP:  73;

FRANKFORT      SUNNY     69  66  90 CALM      30.06R
6HR MIN TEMP:  67; 6HR MAX TEMP:  72;

LOUISVILLE     MOSUNNY   73  69  87 CALM      30.05R
6HR MIN TEMP:  71; 6HR MAX TEMP:  76;

LEBANON*         N/A     72  66  83 S7        30.09R
GLASGOW*       CLEAR    N/A N/A N/A CALM      30.08R
BOWLING GREEN  CLEAR     70  69  97 CALM      30.07R
6HR MIN TEMP:  68; 6HR MAX TEMP:  73;

$$

KYZ091>093-OHZ055-061-077-WVZ005-015-034-035-042-201300
...SOUTHERN OHIO/WEST VIRGINIA...

CITY           SKY/WX    TMP DP  RH WIND       PRES   REMARKS
COVINGTON      SUNNY     70  70 100 CALM      30.07R
COLUMBUS       SUNNY     67  65  93 E3        30.09R
DAYTON         PTSUNNY   69  63  81 SE7       30.09R
WILMINGTON     MOSUNNY   66  66 100 E5        30.09R
HUNTINGTON     MOSUNNY   68  67  96 S3        30.09R
CHARLESTON     MOSUNNY   67  65  93 CALM      30.11R FOG
PINEVILLE*     FOG       64  63  97 MISG      30.21R VSB 1
BECKLEY        SUNNY     65  62  90 CALM      30.19R
BLUEFIELD      SUNNY     66  62  87 CALM      30.20S
LOGAN CO APT*  FOG       66  66 100 CALM      30.14R VSB 1/4
$$

VAZ002-007-008-TNZ017-027-036-066-071-201300
...SOUTHWEST VIRGINIA/EAST TENNESSEE...

CITY           SKY/WX    TMP DP  RH WIND       PRES   REMARKS
WISE*          SUNNY     66  66 100 CALM      30.21R
JONESVILLE*      N/A     64  64 100 CALM      30.16R
ABINGDON*      SUNNY     67  67 100 CALM      30.17S
BRISTOL        FOG       64  64 100 CALM      30.15R VSB 1/2
MORRISTOWN*    SUNNY     70  66  88 E3        30.12R
SEVIERVILLE*   SUNNY     64  63  94 CALM      30.11R
KNOXVILLE      MOSUNNY   68  65  90 CALM      30.10R
LAFOLLETTE*    SUNNY     68  66  94 CALM      30.15S FOG
OAK RIDGE      FOG       69  68  96 CALM      30.12R VSB 1/4
CROSSVILLE     SUNNY     64  64 100 CALM      30.15R
NASHVILLE      PTCLDY    73  70  90 CALM      30.08R
$$

...KEY TO REMARKS...
VSB - VISIBILITY IN MILES
WCI - WIND CHILL INDEX
HX  - HEAT INDEX

$$




USA.gov is the U.S. government's official web portal to all federal, state and local government web resources and services.